This demonstration page uses our WeatherBlox Daily Observations layout. Learn more.

Left ArrowRight Arrow

34.16533, -84.80231

Hourly Observations for December 19, 2017

Temp ( °F °C ) Dew Point ( °F °C ) Humidity (%) Winds ( mph kmh ) Pressure ( in mb ) Visibility ( mi km ) Precip ( " mm )
12:53 am 00:53 Mostly Cloudy with Light Rain 41 5 41 5 100 100 Calm 30.21 1023 0 0 0.00 0.03
1:25 am 01:25 Mostly Cloudy with Light Rain 43 6.1 43 6.1 100 100 Calm 30.21 1023 1 1 0.01 0.25
1:53 am 01:53 Mostly Cloudy with Fog 44 6.7 44 6.7 100 100 Calm 30.20 1023 0 0 0.01 0.25
2:48 am 02:48 Mostly Cloudy with Light Rain 45 7 45 7 100 100 Calm 30.21 1023 1 1 0.00 0.03
2:53 am 02:53 Mostly Cloudy with Light Rain 45 7.2 45 7.2 100 100 Calm 30.20 1023 0 0 0.00 0.03
3:53 am 03:53 Mostly Cloudy with Light Rain 46 7.8 46 7.8 100 100 Calm 30.19 1023 1 1 0.00 0.03
4:01 am 04:01 Mostly Cloudy with Light Rain 46 7.8 46 7.8 100 100 Calm 30.21 1023 0 0 0.00 0.03
4:15 am 04:15 Mostly Cloudy with Fog 46 7.8 46 7.8 100 100 Calm 30.21 1023 1 1 0.00 0.03
4:28 am 04:28 Mostly Cloudy with Light Rain 46 7.8 46 7.8 100 100 Calm 30.21 1023 0 0 0.00 0.03
4:53 am 04:53 Mostly Cloudy with Light Rain 46 7.8 46 7.8 100 100 Calm 30.18 1022 1 1 0.00 0.03
5:53 am 05:53 Mostly Cloudy with Mist and Fog 47 8.3 47 8.3 100 100 Calm 30.19 1022 1 1 0.00 0.03
6:01 am 06:01 Cloudy with Mist and Fog 47 8.3 47 8.3 100 100 Calm 30.21 1023 2 2 0.00 0.00
6:18 am 06:18 Cloudy with Mist and Fog 48 8.9 48 8.9 100 100 Calm 30.21 1023 3 4 0.00 0.00
6:35 am 06:35 Cloudy with Mist and Fog 49 9.4 49 9.4 100 100 Calm 30.21 1023 2 3 0.00 0.00
6:53 am 06:53 Cloudy with Mist and Fog 49 9.4 49 9.4 100 100 Calm 30.20 1023 3 4 0.00 0.00
7:07 am 07:07 Cloudy with Light Rain 49 9.4 49 9.4 100 100 Calm 30.21 1023 1 2 0.00 0.03
7:46 am 07:46 Cloudy with Light Rain 49 9.4 49 9.4 100 100 Calm 30.21 1023 3 5 0.00 0.03
7:53 am 07:53 Cloudy with Light Rain 49 9.4 49 9.4 100 100 Calm 30.21 1023 3 5 0.00 0.03
8:00 am 08:00 Cloudy with Mist and Fog 49 9.4 49 9.4 100 100 Calm 30.21 1023 2 3 0.00 0.03
8:11 am 08:11 Cloudy with Mist and Fog 49 9.4 49 9.4 100 100 Calm 30.21 1023 1 2 0.00 0.03
8:19 am 08:19 Mostly Cloudy with Light Rain 49 9.4 49 9.4 100 100 Calm 30.24 1024 1 1 0.00 0.03
8:53 am 08:53 Mostly Cloudy with Light Rain 49 9.4 49 9.4 100 100 Calm 30.23 1024 1 1 0.00 0.03
9:09 am 09:09 Mostly Cloudy with Light Rain 50 10 50 10 100 100 Calm 30.24 1024 1 2 0.00 0.03
9:27 am 09:27 Mostly Cloudy with Light Rain 50 10 50 10 100 100 Calm 30.24 1024 1 1 0.00 0.03
9:53 am 09:53 Mostly Cloudy with Light Rain 50 10 50 10 100 100 Calm 30.25 1024 1 1 0.00 0.03
10:12 am 10:12 Cloudy with Light Rain 51 10.6 51 10.6 100 100 Calm 30.27 1025 1 2 0.00 0.03
10:40 am 10:40 Cloudy with Mist and Fog 51 10.6 51 10.6 100 100 Calm 30.27 1025 3 4 0.00 0.03
10:49 am 10:49 Cloudy with Mist and Fog 52 11 52 11 100 100 Calm 30.27 1025 3 5 0.00 0.03
10:53 am 10:53 Cloudy with Mist and Fog 51 10.6 51 10.6 100 100 N 3 6 30.25 1024 4 6 0.00 0.03
11:53 am 11:53 Cloudy with Mist and Fog 52 11.1 52 11.1 100 100 Calm 30.23 1024 4 6 0.00 0.00
12:53 pm 12:53 Cloudy with Mist and Fog 53 11.7 53 11.7 100 100 Calm 30.20 1023 4 6 0.00 0.00
1:46 pm 13:46 Cloudy with Mist and Fog 53 11.7 53 11.7 100 100 Calm 30.18 1022 2 3 0.00 0.00
1:53 pm 13:53 Cloudy with Mist and Fog 53 11.7 53 11.7 100 100 Calm 30.16 1021 2 3 0.00 0.00
2:45 pm 14:45 Cloudy with Mist and Fog 54 12.2 54 12.2 100 100 Calm 30.18 1022 3 5 0.01 0.25
2:53 pm 14:53 Cloudy with Mist and Fog 54 12.2 54 12.2 100 100 Calm 30.15 1021 3 5 0.01 0.25
3:27 pm 15:27 Cloudy with Light Rain 55 12.8 55 12.8 100 100 Calm 30.15 1021 3 4 0.02 0.51
3:36 pm 15:36 Cloudy with Mist and Fog 55 12.8 55 12.8 100 100 N 3 6 30.15 1021 3 5 0.02 0.51
3:53 pm 15:53 Cloudy with Mist and Fog 55 12.8 55 12.8 100 100 NE 3 6 30.14 1021 3 4 0.02 0.51
4:21 pm 16:21 Cloudy with Mist and Fog 54 12.2 54 12.2 100 100 Calm 30.15 1021 2 3 0.00 0.00
4:53 pm 16:53 Cloudy with Mist and Fog 54 12.2 54 12.2 100 100 Calm 30.13 1020 2 3 0.00 0.03
5:39 pm 17:39 Cloudy with Mist and Fog 54 12.2 54 12.2 100 100 NE 3 6 30.15 1021 3 5 0.00 0.00
5:53 pm 17:53 Cloudy with Mist and Fog 54 12.2 54 12.2 100 100 Calm 30.13 1020 4 6 0.00 0.00
6:53 pm 18:53 Cloudy with Mist and Fog 55 12.8 55 12.8 100 100 Calm 30.12 1020 4 6 0.00 0.03
7:08 pm 19:08 Cloudy with Mist and Fog 54 12.2 54 12.2 100 100 Calm 30.15 1021 3 4 0.00 0.03
7:20 pm 19:20 Cloudy with Mist and Fog 54 12.2 54 12.2 100 100 Calm 30.15 1021 3 5 0.00 0.03
7:53 pm 19:53 Cloudy with Mist and Fog 55 12.8 55 12.8 100 100 Calm 30.11 1020 4 6 0.01 0.25
8:17 pm 20:17 Cloudy with Mist and Fog 55 12.8 55 12.8 100 100 Calm 30.12 1020 4 6 0.00 0.00
8:53 pm 20:53 Cloudy with Mist and Fog 55 12.8 55 12.8 100 100 Calm 30.11 1020 4 6 0.00 0.00
9:53 pm 21:53 Cloudy with Mist and Fog 55 12.8 55 12.8 100 100 Calm 30.10 1019 3 5 0.00 0.00
10:53 pm 22:53 Cloudy with Mist and Fog 55 12.8 55 12.8 100 100 Calm 30.08 1019 3 4 0.00 0.00
11:07 pm 23:07 Cloudy with Mist and Fog 55 12.8 55 12.8 100 100 Calm 30.09 1019 3 5 0.00 0.00
11:53 pm 23:53 Cloudy with Mist and Fog 55 12.8 55 12.8 100 100 Calm 30.06 1018 2 3 0.00 0.00

Powered by AerisWeather